Regional Weather Roundup
Issued by NWS Wakefield, VA

Home | Current Version | Previous Version | Graphics & Text | Print | Product List | Glossary On
Versions: 1 2 3 4 5 6 7 8 9 10 11 12 13 14 15 16 17 18 19 20 21 22 23 24 25 26 27 28 29 30 31 32 33 34 35 36 37 38 39 40 41 42 43 44 45 46 47 48 49 50
000
ASUS41 KAKQ 300312
RWRAKQ

REGIONAL WEATHER ROUNDUP
NATIONAL WEATHER SERVICE WAKEFIELD VA
1100 PM EDT SAT AUG 29 2015

Note: "fair" indicates few or no clouds below 12,000 feet with no
significant weather and/or obstructions to visibility. * = Denotes
station may not report precipitation (e.g., rain,snow,etc.),
thunder or fog.

VAZ042-051-052>054-056-300400-
NORTHERN VIRGINIA

CITY           SKY/WX    TMP DP  RH WIND       PRES   REMARKS
WASH NATIONAL  MOCLDY    75  66  73 S10       30.13R
DULLES         MOCLDY    75  64  68 S7        30.12S
FORT BELVOIR   PTCLDY    73  65  76 SE6       30.13R
QUANTICO       PTCLDY    77  65  66 S15       30.14S
FREDERICKSBRG* PTCLDY    74  66  75 S5        30.13S
STAFFORD*      FAIR      71  64  78 CALM      30.17S
WARRENTON      MOCLDY    74  67  76 S3        30.13R
CULPEPER*      CLOUDY    71  64  80 CALM      30.14R
MANASSAS*      PTCLDY    72  66  83 CALM      30.13R
LEESBURG*      PTCLDY    75  68  78 S8        30.13S
WINCHESTER     PTCLDY    73  63  68 S3        30.11S
FRONT ROYAL*   FAIR      70  63  78 CALM      30.12S
LURAY*         FAIR      68  61  77 S3        30.14S
$$

VAZ048-049-060>072-079>083-300400-
CENTRAL AND SOUTH CENTRAL VIRGINIA

CITY           SKY/WX    TMP DP  RH WIND       PRES   REMARKS
RICHMOND       MOCLDY    71  61  70 CALM      30.15S
CHESTERFIELD*  FAIR      70  54  56 CALM      30.17S
PETERSBURG*    PTCLDY    65  65 100 CALM      30.16S
HANOVER        CLEAR     71  63  75 VRB3      30.16S
TAPPAHANNOCK*  CLEAR     69  61  76 CALM      30.15F
QUINTON*       FAIR      66  64  96 CALM      30.15S
CHARLOTTSVILLE CLEAR     71  63  75 CALM      30.14R
GORDONSVILLE*  FAIR      67  65  94 CALM      30.14R
ORANGE*        PTCLDY    70  64  83 S5        30.15S
LOUISA*        PTCLDY    73  64  73 CALM      30.14R
BUMPASS*       FAIR      69  64  82 CALM      30.15R
FARMVILLE*     MOCLDY    73  64  73 CALM      30.14S
CREWE*         FAIR     N/A N/A N/A CALM      30.15R
FORT PICKETT*  FAIR      70  66  88 S9        30.16R
CHASE CITY*    FAIR      70  65  84 CALM      30.16R
CLARKSVILLE*   FAIR      68  66  94 CALM      30.15S
SOUTH HILL*    MOCLDY    69  63  81 CALM      30.21S
LAWRENCEVILLE* FAIR      70  64  83 CALM      30.16R
EMPORIA*       MOCLDY    66  63  88 CALM      30.17R
$$

VAZ088>098-300400-
SOUTHEAST VIRGINIA

CITY           SKY/WX    TMP DP  RH WIND       PRES   REMARKS
NORFOLK        MOCLDY    72  63  73 CALM      30.14S
VIRGINIA BEACH MOCLDY    73  62  68 CALM      30.13S
NORFOLK NAVAL  MOCLDY    70  62  76 CALM      30.15F
WEST POINT*    PTCLDY    67  63  85 CALM      30.17S
SALUDA*        FAIR      67  64  87 CALM      30.15S
NEWPORT NEWS   MOCLDY    69  63  81 CALM      30.15S
LANGLEY AFB    MOCLDY    74  63  68 SE2       30.14S
FORT EUSTIS    MOCLDY    71  66  85 CALM      30.13S
WILLIAMSBURG*  PTCLDY    73  66  78 CALM      30.16S
HR EXEC AP*      N/A     63  57  82 CALM      30.17S
FRANKLIN*      MOCLDY    66  63  89 CALM      30.16R
WAKEFIELD      PTCLDY    67  62  84 CALM      30.15S
$$

VAZ020-022-025-037-045-300400-
WEST CENTRAL AND SOUTHWEST VIRGINIA

CITY           SKY/WX    TMP DP  RH WIND       PRES   REMARKS
STAUNTON*      PTCLDY    73  61  67 S5        30.18S
WAYNESBORO*    FAIR      70  61  74 CALM      30.18S
HOT SPRINGS VA MOCLDY    66  58  74 W10       30.28S
LYNCHBURG      MOCLDY    67  62  84 CALM      30.18R
DANVILLE       MOCLDY    70  65  84 CALM      30.16R
SOUTH BOSTON*  FAIR      67  63  86 CALM      30.16R
MARTINSVILLE   PTCLDY    65  65 100 CALM      30.20S
ROANOKE        MOCLDY    70  64  81 W3        30.19S
BLACKSBURG     MOCLDY    68  62  81 CALM      30.26R
DUBLIN*        CLOUDY    69  64  86 CALM      30.24S
MARION*        CLOUDY    67  61  79 CALM      30.27S
HILLSVILLE*    CLOUDY    67  58  74 S5        30.25R
RICHLANDS*     FAIR      69  28  21 SE5       30.24S
WISE*          MOCLDY    72  55  56 S6        30.24S
ABINGDON*      CLOUDY    70  63  79 CALM      30.22S
$$

MDZ021>025-VAZ099-100-300400-
SOUTHERN MARYLAND AND THE DELMARVA PENINSULA

CITY           SKY/WX    TMP DP  RH WIND       PRES   REMARKS
PATUXENT RIVER PTCLDY    72  63  73 S5        30.14S
BAY BRIDGE APT   N/A     77  64  65 S7        30.13S
LEONARDTOWN    PTCLDY    72  63  73 CALM      30.16S
DOVER          MOCLDY    71  64  79 S6        30.13R
GEORGETOWN     CLOUDY    69  62  78 SW5       30.15S
EASTON         NOT AVBL
CAMBRIDGE      PTCLDY    72  64  78 CALM      30.14S
SALISBURY      CLOUDY    68  63  84 CALM      30.15R
OCEAN CITY     CLOUDY    75  61  61 CALM      30.15S
WALLOPS ISLAND CLOUDY    74  64  71 S5        30.16R
ACCOMACK*      CLOUDY    66  54  63 SE5       30.15S
$$

NCZ012>017-030>032-300400-
NORTH CENTRAL AND EASTERN NORTH CAROLINA

CITY           SKY/WX    TMP DP  RH WIND       PRES   REMARKS
ROANOKE RAPIDS FAIR      68  63  83 CALM      30.15S
RALEIGH        CLOUDY    71  63  75 CALM      30.16R
ELIZABETH CITY CLOUDY    74  67  78 N6        30.14S
AHOSKIE*       MOCLDY    66  63  89 CALM      30.15F
EDENTON*       CLOUDY    67  64  88 CALM      30.15R
CURRITUCK*     CLOUDY    76  63  65 NE5       30.14F
KILL DEVIL HLS CLOUDY    77  67  72 NE6       30.11F
MANTEO         CLOUDY    76  69  80 NE8       30.13S
CAPE HATTERAS  PTCLDY    76  72  87 NE7       30.11S
TARBORO*       FAIR      67  65  93 CALM      30.16S
GOLDSBORO      CLOUDY    72  63  73 CALM      30.14R
WASHINGTON     CLOUDY    68  65  90 CALM      30.14F
GREENVILLE     CLOUDY    70  66  88 CALM      30.16S
NEW BERN       CLOUDY    73  64  73 CALM      30.16R
WILMINGTON     PTCLDY    73  66  78 NE5       30.14R
$$

VAZ048-300400-
ELSEWHERE

CITY           SKY/WX    TMP DP  RH WIND       PRES   REMARKS
HARRISBURG PA  MOCLDY    72  65  78 CALM      30.10S
BALTIMORE      MOCLDY    73  63  70 S5        30.12S
ANNAPOLIS      MOCLDY    75  63  66 S6        30.13R
ANDREWS AFB    MOCLDY    72  64  75 S8        30.13R
PHILADELPHIA   MOCLDY    75  62  64 SW8       30.13S
HENDERSON NC   CLOUDY    70  63  76 CALM      30.17R
GREENSBORO     MOCLDY    74  60  61 CALM      30.17S
ROCKY MOUNT    CLOUDY    74  62  66 CALM      30.15S
$$

VAZ100-300400-
MARINE

STATION/POSITION TIME  TEMP    WIND        PRES    WAVE   SWELL
                       AIR SEA DIR/SP/G            HT/PER HT/PER
                 (UTC) (F)     (DEG/KT/KT) (MB)    (FT/S) (FT/S)
15NM E FENWICK I 0250   76 78  160/ 10/ 12 1020.9R   3/11   3/11
GOOSES REEF MD   0300   77 79  200/ 16/ 17 1021.3S
POTOMAC MD       0300   77 80  190/ 12/ 14 1019.7F   2/ 3
STINGRAY PT      0300   77 79  160/ 10/ 12 1021.2R   1/ 2
JAMESTOWN VA     0300   74 81  170/  4/  6   N/A
CHESAPEAKE LGHT  0200   76      90/ 11/ 12 1021.2R
CAPE HENRY BUOY  0228      79                N/A     3/11   2/11
1ST LANDING BUOY 0300      78              1020.2F   2/ 4
CAPE CHARLES BUO 0226      79                N/A     3/12   2/12
OFFSHORE WE BUOY 0211      78                N/A     4/11   2/11
64NM E OF VA BCH 0250   78 78   70/ 12/ 16 1019.7R   4/11   3/11
44100 DUCK FRF   0224      78                N/A     4/11   2/11
44056 DUCK FRF   0211      78                N/A     4/12   2/12
DIAMOND SHLS NC  0250   79 82   30/ 16/ 17 1018.8F   5/11   3/11
CAPE LOOKOUT NC  0300   77      10/  6/  8 1019.9R
$$


USA.gov is the U.S. government's official web portal to all federal, state and local government web resources and services.